Project,Study,Ord_Occ,Event_Num,Cast_ID,Date_Time_UTC,Date_Time_PST,Lat_Dec,Lon_Dec,Sta_ID,Line,Sta,Depth,Pressure,PrQ,Temp1,Temp1Q,Temp2,Temp2Q,TempAve,Salt1,Salt1Q,Salt1_Corr,Salt2,Salt2Q,Salt2_Corr,SaltAve_Corr,Ox1,Ox1Q,Ox1_CruiseCorr,Ox1_StaCorr,Ox2,Ox2Q,Ox2_CruiseCorr,Ox2_StaCorr,OxAve_StaCorr,Ox1uM,Ox1uM_CruiseCorr,Ox1uM_StaCorr,Ox2uM,Ox2uM_CruiseCorr,Ox2uM_StaCorr,OxAveuM_StaCorr,FluorV,FluorQ,EstChl_CruiseCorr,EstChl_StaCorr,ISUSV,ISUSQ,EstNO3_CruiseCorr,EstNO3_StaCorr,SigThetaTS1,SigThetaTS1Q,SigThetaTS2,SigThetaTS2Q,BAT,XMiss,TransQ,pH,pHQ,SPAR,SPARQ,PAR,PARQ,PoT1,PoT2,DynHt,SVA,OxSat1,OxSat2,BTL_Depth,BTL_Temp,SaltB,OxB,OxBuM,Chl-a,Phaeo,NO3,NO2,NH4,PO4,SIL
CalCOFI,2101RL,010,,2101_010d,17-Jan-2021 14:40:21,17-Jan-2021 06:40:21,32.01314,-119.23442,093.3 055.0,093.3,055.0,2.000,2.014,,15.5042,,15.5046,,15.5044,33.4766,,33.4824,33.4681,,33.4701,33.4763,5.5706,,5.8301,5.8289,5.4429,,5.7789,5.7482,5.7886,242.790,254.4128,254.3016,237.226,270.4387,250.7820,252.5418,0.0622,,0.2615,0.3055, ,, , ,24.6871,,24.6805,,0.8109,81.6505,,,,7.2037E+00,,3.8025E-01,,15.5039,15.5043,-0.0024,324.624,97.922,95.673,,,,,,,,,,,,
CalCOFI,2101RL,010,,2101_010d,17-Jan-2021 14:40:48,17-Jan-2021 06:40:48,32.01312,-119.23444,093.3 055.0,093.3,055.0,3.000,3.021,,15.5049,,15.5051,,15.5050,33.4766,,33.4824,33.4695,,33.4715,33.4770,5.5736,,5.8332,5.8321,5.4619,,5.7991,5.7683,5.8002,242.920,254.5489,254.4370,238.052,270.5832,251.6552,253.0461,0.0666,,0.2975,0.3484, ,, , ,24.6870,,24.6815,,0.8074,81.7217,,,,7.4512E+00,,2.7644E-01,,15.5044,15.5047,0.0091,324.671,97.975,96.008,3,,33.4647,5.794,252.73,0.273,0.059,,,,,
CalCOFI,2101RL,010,,2101_010d,17-Jan-2021 14:40:54,17-Jan-2021 06:40:54,32.01312,-119.23445,093.3 055.0,093.3,055.0,4.000,4.028,,15.5052,,15.5056,,15.5054,33.4765,,33.4823,33.4691,,33.4711,33.4767,5.5620,,5.8211,5.8200,5.4909,,5.8299,5.7989,5.8095,242.414,254.0192,253.9100,239.317,270.0206,252.9923,253.4512,0.0680,,0.3090,0.3621, ,, , ,24.6869,,24.6811,,0.8072,81.7267,,,,7.3895E+00,,2.4328E-01,,15.5046,15.5050,0.0140,324.712,97.772,96.519,,,,,,,,,,,,
CalCOFI,2101RL,010,,2101_010d,17-Jan-2021 14:40:57,17-Jan-2021 06:40:57,32.01312,-119.23446,093.3 055.0,093.3,055.0,5.000,5.035,,15.5033,,15.5033,,15.5033,33.4757,,33.4815,33.4684,,33.4704,33.4760,5.5736,,5.8332,5.8321,5.4995,,5.8390,5.8080,5.8201,242.922,254.5509,254.4391,239.693,270.5855,253.3898,253.9145,0.0623,,0.2623,0.3065, ,, , ,24.6867,,24.6811,,0.8059,81.7529,,,,7.3895E+00,,2.2271E-01,,15.5025,15.5026,0.0175,324.753,97.973,96.665,,,,,,,,,,,,
CalCOFI,2101RL,010,,2101_010d,17-Jan-2021 14:40:59,17-Jan-2021 06:40:59,32.01311,-119.23446,093.3 055.0,093.3,055.0,6.000,6.042,,15.5020,,15.5024,,15.5022,33.4758,,33.4816,33.4683,,33.4703,33.4760,5.5665,,5.8258,5.8247,5.5004,,5.8400,5.8089,5.8168,242.610,254.2243,254.1141,239.730,270.2385,253.4289,253.7715,0.0613,,0.2541,0.2967, ,, , ,24.6871,,24.6813,,0.8062,81.7472,,,,7.3895E+00,,2.1320E-01,,15.5010,15.5014,0.0208,324.749,97.844,96.678,,,,,,,,,,,,
CalCOFI,2101RL,010,,2101_010d,17-Jan-2021 14:41:01,17-Jan-2021 06:41:01,32.01310,-119.23446,093.3 055.0,093.3,055.0,7.000,7.049,,15.5051,,15.5066,,15.5059,33.4759,,33.4817,33.4686,,33.4706,33.4762,5.5732,,5.8328,5.8317,5.5103,,5.8505,5.8194,5.8256,242.902,254.5300,254.4182,240.163,270.5632,253.8866,254.1524,0.0637,,0.2738,0.3201, ,, , ,24.6865,,24.6806,,0.8052,81.7661,,,,7.3895E+00,,1.9965E-01,,15.5040,15.5055,0.0240,324.838,97.968,96.862,,,,,,,,,,,,
CalCOFI,2101RL,010,,2101_010d,17-Jan-2021 14:41:04,17-Jan-2021 06:41:04,32.01308,-119.23444,093.3 055.0,093.3,055.0,8.000,8.056,,15.5050,,15.5058,,15.5054,33.4760,,33.4818,33.4687,,33.4707,33.4763,5.5647,,5.8239,5.8228,5.5091,,5.8492,5.8181,5.8205,242.532,254.1427,254.0329,240.112,270.1518,253.8327,253.9328,0.0640,,0.2762,0.3231, ,, , ,24.6867,,24.6809,,0.8055,81.7599,,,,7.3895E+00,,1.8781E-01,,15.5038,15.5046,0.0273,324.852,97.819,96.840,,,,,,,,,,,,
CalCOFI,2101RL,010,,2101_010d,17-Jan-2021 14:41:06,17-Jan-2021 06:41:06,32.01307,-119.23445,093.3 055.0,093.3,055.0,9.000,9.063,,15.5058,,15.5082,,15.5070,33.4763,,33.4821,33.4697,,33.4717,33.4769,5.5589,,5.8178,5.8168,5.5142,,5.8546,5.8235,5.8202,242.279,253.8779,253.7694,240.332,269.8704,254.0652,253.9173,0.0586,,0.2320,0.2704, ,, , ,24.6868,,24.6811,,0.8087,81.6958,,,,7.3895E+00,,1.8022E-01,,15.5044,15.5068,0.0306,324.875,97.719,96.934,9,,33.4731,5.811,253.45,0.297,0.066,,,,,
CalCOFI,2101RL,010,,2101_010d,17-Jan-2021 14:41:07,17-Jan-2021 06:41:07,32.01306,-119.23446,093.3 055.0,093.3,055.0,10.000,10.070,,15.5038,,15.5071,,15.5055,33.4768,,33.4826,33.4695,,33.4715,33.4771,5.5555,,5.8143,5.8132,5.4985,,5.8380,5.8069,5.8101,242.130,253.7219,253.6142,239.648,269.7048,253.3422,253.4782,0.0589,,0.2344,0.2733, ,, , ,24.6876,,24.6813,,0.8066,81.7375,,,,7.3895E+00,,1.7028E-01,,15.5023,15.5055,0.0338,324.827,97.655,96.655,,,,,,,,,,,,
CalCOFI,2101RL,010,,2101_010d,17-Jan-2021 14:41:08,17-Jan-2021 06:41:08,32.01306,-119.23446,093.3 055.0,093.3,055.0,11.000,11.077,,15.5218,,15.5197,,15.5208,33.4834,,33.4892,33.4746,,33.4766,33.4829,5.5575,,5.8164,5.8153,5.4923,,5.8314,5.8004,5.8079,242.218,253.8140,253.7059,239.376,269.8026,253.0547,253.3803,0.0585,,0.2312,0.2694, ,, , ,24.6888,,24.6825,,0.8055,81.7610,,,,7.3895E+00,,1.7426E-01,,15.5201,15.5180,0.0371,324.748,97.729,96.573,,,,,,,,,,,,
CalCOFI,2101RL,010,,2101_010d,17-Jan-2021 14:41:10,17-Jan-2021 06:41:10,32.01308,-119.23446,093.3 055.0,093.3,055.0,12.000,12.085,,15.5365,,15.5382,,15.5374,33.4878,,33.4936,33.4808,,33.4828,33.4882,5.5632,,5.8223,5.8212,5.4933,,5.8324,5.8014,5.8113,242.466,254.0736,253.9641,239.422,270.0784,253.1033,253.5337,0.0592,,0.2369,0.2762, ,, , ,24.6889,,24.6831,,0.8044,81.7837,,,,7.3895E+00,,1.6934E-01,,15.5346,15.5364,0.0404,324.770,97.860,96.630,,,,,,,,,,,,
CalCOFI,2101RL,010,,2101_010d,17-Jan-2021 14:41:18,17-Jan-2021 06:41:18,32.01306,-119.23447,093.3 055.0,093.3,055.0,13.000,13.092,,15.5445,,15.5483,,15.5464,33.4944,,33.5002,33.4881,,33.4901,33.4952,5.5580,,5.8169,5.8158,5.5002,,5.8398,5.8087,5.8123,242.240,253.8370,253.7288,239.722,269.8271,253.4204,253.5746,0.0621,,0.2607,0.3045, ,, , ,24.6922,,24.6865,,0.8057,81.7558,,,,7.3895E+00,,1.4306E-01,,15.5425,15.5463,0.0448,324.484,97.789,96.776,,,,,,,,,,,,
CalCOFI,2101RL,010,,2101_010d,17-Jan-2021 14:41:27,17-Jan-2021 06:41:27,32.01299,-119.23447,093.3 055.0,093.3,055.0,14.000,14.099,,15.5563,,15.5524,,15.5544,33.4996,,33.5054,33.4891,,33.4911,33.4983,5.5540,,5.8127,5.8117,5.5089,,5.8490,5.8179,5.8148,242.064,253.6528,253.5455,240.100,269.6314,253.8200,253.6828,0.0654,,0.2877,0.3367, ,, , ,24.6936,,24.6865,,0.8088,81.6929,,,,7.3895E+00,,1.2420E-01,,15.5541,15.5502,0.0490,324.382,97.744,96.936,,,,,,,,,,,,
CalCOFI,2101RL,010,,2101_010d,17-Jan-2021 14:41:30,17-Jan-2021 06:41:30,32.01298,-119.23450,093.3 055.0,093.3,055.0,15.000,15.106,,15.5621,,15.5630,,15.5626,33.5044,,33.5102,33.4971,,33.4991,33.5047,5.5547,,5.8134,5.8124,5.5081,,5.8482,5.8171,5.8148,242.093,253.6832,253.5757,240.067,269.6636,253.7851,253.6804,0.0628,,0.2664,0.3114, ,, , ,24.6961,,24.6903,,0.8060,81.7506,,,,7.3895E+00,,1.1829E-01,,15.5598,15.5607,0.0521,324.175,97.770,96.948,,,,,,,,,,,,
CalCOFI,2101RL,010,,2101_010d,17-Jan-2021 14:41:33,17-Jan-2021 06:41:33,32.01298,-119.23450,093.3 055.0,093.3,055.0,16.000,16.113,,15.5691,,15.5674,,15.5683,33.5117,,33.5175,33.5013,,33.5033,33.5104,5.5494,,5.8079,5.8069,5.5103,,5.8505,5.8194,5.8132,241.864,253.4434,253.3372,240.159,269.4090,253.8824,253.6098,0.0644,,0.2795,0.3270, ,, , ,24.7002,,24.6926,,0.8060,81.7510,,,,7.3895E+00,,1.1661E-01,,15.5666,15.5649,0.0554,323.821,97.696,96.997,,,,,,,,,,,,
CalCOFI,2101RL,010,,2101_010d,17-Jan-2021 14:41:37,17-Jan-2021 06:41:37,32.01296,-119.23450,093.3 055.0,093.3,055.0,17.000,17.120,,15.5703,,15.5706,,15.5705,33.5139,,33.5197,33.5065,,33.5085,33.5141,5.5494,,5.8079,5.8069,5.5055,,5.8454,5.8143,5.8106,241.861,253.4403,253.3340,239.949,269.4056,253.6604,253.4972,0.0644,,0.2795,0.3270, ,, , ,24.7017,,24.6959,,0.8078,81.7147,,,,7.3895E+00,,1.0404E-01,,15.5677,15.5680,0.0587,323.709,97.698,96.921,,,,,,,,,,,,
CalCOFI,2101RL,010,,2101_010d,17-Jan-2021 14:41:41,17-Jan-2021 06:41:41,32.01296,-119.23450,093.3 055.0,093.3,055.0,18.000,18.127,,15.5724,,15.5732,,15.5728,33.5166,,33.5224,33.5101,,33.5121,33.5173,5.5394,,5.7974,5.7965,5.4975,,5.8369,5.8059,5.8012,241.425,252.9839,252.8799,239.600,268.9208,253.2915,253.0857,0.0661,,0.2934,0.3436, ,, , ,24.7033,,24.6981,,0.8071,81.7274,,,,7.3895E+00,,9.3103E-02,,15.5696,15.5704,0.0619,323.588,97.528,96.788,,,,,,,,,,,,
CalCOFI,2101RL,010,,2101_010d,17-Jan-2021 14:41:43,17-Jan-2021 06:41:43,32.01298,-119.23450,093.3 055.0,093.3,055.0,19.000,19.134,,15.5701,,15.5691,,15.5696,33.5252,,33.5310,33.5184,,33.5204,33.5257,5.5279,,5.7854,5.7845,5.4942,,5.8334,5.8024,5.7935,240.924,252.4594,252.3581,239.457,268.3637,253.1403,252.7492,0.0677,,0.3065,0.3592, ,, , ,24.7104,,24.7055,,0.8083,81.7031,,,,7.3895E+00,,9.2262E-02,,15.5672,15.5662,0.0652,322.938,97.327,96.728,,,,,,,,,,,,
CalCOFI,2101RL,010,,2101_010d,17-Jan-2021 14:41:44,17-Jan-2021 06:41:44,32.01298,-119.23450,093.3 055.0,093.3,055.0,20.000,20.141,,15.5298,,15.5283,,15.5291,33.5210,,33.5268,33.5138,,33.5158,33.5213,5.5232,,5.7805,5.7796,5.4932,,5.8323,5.8013,5.7905,240.715,252.2407,252.1405,239.410,268.1313,253.0906,252.6156,0.0711,,0.3344,0.3924, ,, , ,24.7162,,24.7110,,0.8111,81.6453,,,,7.3895E+00,,9.0889E-02,,15.5268,15.5253,0.0684,322.416,97.163,96.629,20,,33.4712,5.807,253.28,0.546,0.236,,,,,
CalCOFI,2101RL,010,,2101_010d,17-Jan-2021 14:41:46,17-Jan-2021 06:41:46,32.01294,-119.23454,093.3 055.0,093.3,055.0,21.000,21.148,,15.4724,,15.4693,,15.4709,33.5109,,33.5167,33.5036,,33.5056,33.5112,5.5329,,5.7906,5.7897,5.4989,,5.8384,5.8074,5.7986,241.136,252.6814,252.5789,239.659,268.5994,253.3539,252.9664,0.0758,,0.3729,0.4382, ,, , ,24.7212,,24.7163,,0.8146,81.5756,,,,7.3895E+00,,8.5512E-02,,15.4692,15.4661,0.0717,321.971,97.217,96.611,,,,,,,,,,,,
CalCOFI,2101RL,010,,2101_010d,17-Jan-2021 14:41:48,17-Jan-2021 06:41:48,32.01294,-119.23454,093.3 055.0,093.3,055.0,22.000,22.156,,15.3627,,15.3561,,15.3594,33.4930,,33.4988,33.4846,,33.4866,33.4927,5.5316,,5.7893,5.7883,5.5092,,5.8493,5.8182,5.8033,241.077,252.6196,252.5175,240.105,268.5338,253.8253,253.1714,0.0810,,0.4155,0.4890, ,, , ,24.7317,,24.7267,,0.8187,81.4924,,,,7.3895E+00,,8.1800E-02,,15.3594,15.3527,0.0749,321.003,96.973,96.564,,,,,,,,,,,,
CalCOFI,2101RL,010,,2101_010d,17-Jan-2021 14:41:51,17-Jan-2021 06:41:51,32.01294,-119.23454,093.3 055.0,093.3,055.0,23.000,23.163,,15.1648,,15.1628,,15.1638,33.4723,,33.4781,33.4657,,33.4677,33.4729,5.5644,,5.8236,5.8225,5.5304,,5.8718,5.8406,5.8316,242.503,254.1123,254.0027,241.022,270.1195,254.7946,254.3987,0.0946,,0.5270,0.6217, ,, , ,24.7592,,24.7545,,0.8380,81.0988,,,,7.8649E+00,,8.3265E-02,,15.1613,15.1594,0.0781,318.402,97.154,96.553,,,,,,,,,,,,
CalCOFI,2101RL,010,,2101_010d,17-Jan-2021 14:41:53,17-Jan-2021 06:41:53,32.01294,-119.23454,093.3 055.0,093.3,055.0,24.000,24.170,,15.0124,,15.0103,,15.0114,33.5009,,33.5067,33.4938,,33.4958,33.5013,5.5464,,5.8048,5.8038,5.5199,,5.8607,5.8295,5.8167,241.703,253.2749,253.1695,240.550,269.2299,254.2957,253.7326,0.1322,,0.8351,0.9886, ,, , ,24.8144,,24.8095,,0.8576,80.7015,,,,7.6477E+00,,7.4806E-02,,15.0088,15.0067,0.0813,313.169,96.563,96.093,,,,,,,,,,,,
CalCOFI,2101RL,010,,2101_010d,17-Jan-2021 14:41:55,17-Jan-2021 06:41:55,32.01292,-119.23454,093.3 055.0,093.3,055.0,25.000,25.177,,14.9714,,14.9706,,14.9710,33.4943,,33.5001,33.4868,,33.4888,33.4945,5.5184,,5.7755,5.7746,5.5031,,5.8428,5.8118,5.7932,240.482,251.9968,251.8978,239.819,267.8722,253.5230,252.7104,0.1415,,0.9113,1.0794, ,, , ,24.8183,,24.8126,,0.8608,80.6375,,,,7.3904E+00,,7.5044E-02,,14.9677,14.9669,0.0845,312.831,95.993,95.722,,,,,,,,,,,,
CalCOFI,2101RL,010,,2101_010d,17-Jan-2021 14:41:57,17-Jan-2021 06:41:57,32.01290,-119.23454,093.3 055.0,093.3,055.0,26.000,26.184,,14.9263,,14.9271,,14.9267,33.4878,,33.4936,33.4808,,33.4828,33.4882,5.5320,,5.7897,5.7888,5.4868,,5.8255,5.7946,5.7917,241.077,252.6196,252.5175,239.105,268.5338,252.7682,252.6429,0.1519,,0.9965,1.1809, ,, , ,24.8231,,24.8175,,0.8607,80.6410,,,,7.5558E+00,,7.3323E-02,,14.9224,14.9233,0.0876,312.404,96.140,95.351,,,,,,,,,,,,
CalCOFI,2101RL,010,,2101_010d,17-Jan-2021 14:41:59,17-Jan-2021 06:41:59,32.01290,-119.23456,093.3 055.0,093.3,055.0,27.000,27.191,,14.9132,,14.9125,,14.9129,33.4870,,33.4928,33.4796,,33.4816,33.4872,5.4654,,5.7200,5.7194,5.4423,,5.7783,5.7476,5.7335,238.173,249.5797,249.4929,237.167,265.3045,250.7197,250.1063,0.1608,,1.0694,1.2678, ,, , ,24.8253,,24.8197,,0.8653,80.5467,,,,9.2594E+00,,7.0027E-02,,14.9092,14.9084,0.0908,312.222,94.957,94.550,,,,,,,,,,,,
CalCOFI,2101RL,010,,2101_010d,17-Jan-2021 14:42:02,17-Jan-2021 06:42:02,32.01290,-119.23456,093.3 055.0,093.3,055.0,28.000,28.198,,14.8445,,14.8336,,14.8391,33.4748,,33.4806,33.4662,,33.4682,33.4744,5.4020,,5.6536,5.6534,5.3793,,5.7114,5.6810,5.6672,235.410,246.6874,246.6152,234.422,262.2320,247.8181,247.2167,0.1660,,1.1120,1.3185, ,, , ,24.8307,,24.8265,,0.8630,80.5933,,,,8.1212E+00,,5.8581E-02,,14.8404,14.8295,0.0939,311.730,93.720,93.301,,,,,,,,,,,,
CalCOFI,2101RL,010,,2101_010d,17-Jan-2021 14:42:03,17-Jan-2021 06:42:03,32.01290,-119.23456,093.3 055.0,093.3,055.0,29.000,29.206,,14.7197,,14.7151,,14.7174,33.4507,,33.4565,33.4435,,33.4455,33.4510,5.4078,,5.6597,5.6595,5.3680,,5.6994,5.6691,5.6643,235.661,246.9501,246.8766,233.926,262.5111,247.2938,247.0852,0.1839,,1.2587,1.4932, ,, , ,24.8391,,24.8345,,0.8650,80.5538,,,,7.3633E+00,,4.2230E-02,,14.7154,14.7108,0.0970,310.962,93.573,92.871,,,,,,,,,,,,
CalCOFI,2101RL,010,,2101_010d,17-Jan-2021 14:42:04,17-Jan-2021 06:42:04,32.01290,-119.23456,093.3 055.0,093.3,055.0,30.000,30.213,,14.6485,,14.6513,,14.6499,33.4361,,33.4419,33.4300,,33.4320,33.4370,5.4032,,5.6549,5.6547,5.3595,,5.6903,5.6601,5.6574,235.459,246.7387,246.6663,233.555,262.2865,246.9016,246.7840,0.1845,,1.2636,1.4990, ,, , ,24.8430,,24.8378,,0.8563,80.7288,,,,7.3895E+00,,4.6757E-02,,14.6440,14.6469,0.1002,310.609,93.351,92.598,,,,,,,,,,,,
CalCOFI,2101RL,010,,2101_010d,17-Jan-2021 14:42:05,17-Jan-2021 06:42:05,32.01292,-119.23454,093.3 055.0,093.3,055.0,31.000,31.220,,14.6016,,14.6024,,14.6020,33.4275,,33.4333,33.4205,,33.4225,33.4279,5.4160,,5.6683,5.6680,5.3676,,5.6989,5.6687,5.6684,236.016,247.3217,247.2464,233.906,262.9059,247.2726,247.2595,0.1837,,1.2571,1.4912, ,, , ,24.8465,,24.8409,,0.8497,80.8620,,,,8.0395E+00,,4.5665E-02,,14.5970,14.5978,0.1033,310.310,93.479,92.641,,,,,,,,,,,,
CalCOFI,2101RL,010,,2101_010d,17-Jan-2021 14:42:10,17-Jan-2021 06:42:10,32.01292,-119.23454,093.3 055.0,093.3,055.0,32.000,32.227,,14.6219,,14.5944,,14.6082,33.4334,,33.4392,33.4197,,33.4217,33.4305,5.3664,,5.6164,5.6164,5.3446,,5.6745,5.6444,5.6304,233.854,245.0586,244.9946,232.902,260.5017,246.2113,245.6030,0.1723,,1.1636,1.3800, ,, , ,24.8467,,24.8420,,0.8489,80.8789,,,,9.2421E+00,,2.6319E-02,,14.6171,14.5897,0.1072,310.318,92.663,92.228,,,,,,,,,,,,
CalCOFI,2101RL,010,,2101_010d,17-Jan-2021 14:42:12,17-Jan-2021 06:42:12,32.01292,-119.23454,093.3 055.0,093.3,055.0,33.000,33.234,,14.5290,,14.5274,,14.5282,33.4179,,33.4237,33.4114,,33.4134,33.4186,5.2315,,5.4752,5.4760,5.2324,,5.5553,5.5258,5.5009,227.974,238.9034,238.8705,228.014,253.9631,241.0444,239.9575,0.1838,,1.2579,1.4922, ,, , ,24.8546,,24.8499,,0.8342,81.1769,,,,7.3930E+00,,1.9307E-03,,14.5241,14.5226,0.1105,309.593,90.158,90.167,,,,,,,,,,,,
CalCOFI,2101RL,010,,2101_010d,17-Jan-2021 14:42:14,17-Jan-2021 06:42:14,32.01292,-119.23454,093.3 055.0,093.3,055.0,34.000,34.241,,14.3651,,14.3641,,14.3646,33.4060,,33.4118,33.3993,,33.4013,33.4066,5.2382,,5.4822,5.4830,5.2201,,5.5423,5.5128,5.4979,228.258,239.2007,239.1663,227.471,254.2789,240.4705,239.8184,0.1513,,0.9916,1.1750, ,, , ,24.8801,,24.8752,,0.8087,81.6942,,,,7.9573E+00,,1.9424E-04,,14.3602,14.3591,0.1136,307.186,89.968,89.653,,,,,,,,,,,,
CalCOFI,2101RL,010,,2101_010d,17-Jan-2021 14:42:15,17-Jan-2021 06:42:15,32.01292,-119.23455,093.3 055.0,093.3,055.0,35.000,35.249,,14.3611,,14.3622,,14.3617,33.4159,,33.4217,33.4087,,33.4107,33.4162,5.1727,,5.4136,5.4148,5.1498,,5.4676,5.4386,5.4267,225.405,236.2142,236.1949,224.404,251.1063,237.2285,236.7117,0.1461,,0.9490,1.1243, ,, , ,24.8886,,24.8828,,0.8028,81.8155,,,,9.2378E+00,,-1.218E-07,,14.3560,14.3571,0.1167,306.404,88.843,88.446,,,,,,,,,,,,
CalCOFI,2101RL,010,,2101_010d,17-Jan-2021 14:42:16,17-Jan-2021 06:42:16,32.01292,-119.23456,093.3 055.0,093.3,055.0,36.000,36.256,,14.4098,,14.4113,,14.4106,33.4435,,33.4493,33.4369,,33.4389,33.4441,5.0832,,5.3200,5.3216,5.0718,,5.3848,5.3562,5.3389,221.499,232.1254,232.1267,221.005,246.7628,233.6356,232.8812,0.1392,,0.8924,1.0570, ,, , ,24.8997,,24.8942,,0.8003,81.8682,,,,9.2369E+00,,1.0000E-12,,14.4045,14.4060,0.1198,305.381,87.405,87.209,,,,,,,,,,,,
CalCOFI,2101RL,010,,2101_010d,17-Jan-2021 14:42:18,17-Jan-2021 06:42:18,32.01292,-119.23456,093.3 055.0,093.3,055.0,37.000,37.263,,14.3377,,14.3370,,14.3374,33.4514,,33.4572,33.4450,,33.4470,33.4521,4.9592,,5.1902,5.1925,4.9542,,5.2599,5.2319,5.2122,216.092,226.4653,226.4953,215.874,240.7501,228.2118,227.3536,0.1277,,0.7982,0.9447, ,, , ,24.9210,,24.9162,,0.7969,81.9369,,,,9.2369E+00,,1.0000E-12,,14.3323,14.3316,0.1228,303.378,85.154,85.063,,,,,,,,,,,,
CalCOFI,2101RL,010,,2101_010d,17-Jan-2021 14:42:21,17-Jan-2021 06:42:21,32.01291,-119.23457,093.3 055.0,093.3,055.0,38.000,38.270,,14.0682,,14.0666,,14.0674,33.4279,,33.4337,33.4217,,33.4237,33.4287,4.9255,,5.1549,5.1575,4.9188,,5.2223,5.1945,5.1760,214.615,224.9192,224.9570,214.326,239.1076,226.5755,225.7663,0.1077,,0.6343,0.7495, ,, , ,24.9593,,24.9549,,0.7783,82.3194,,,,9.2369E+00,,1.0000E-12,,14.0628,14.0611,0.1259,299.743,84.103,83.984,,,,,,,,,,,,
CalCOFI,2101RL,010,,2101_010d,17-Jan-2021 14:42:24,17-Jan-2021 06:42:24,32.01289,-119.23458,093.3 055.0,093.3,055.0,39.000,39.277,,13.9290,,13.9382,,13.9336,33.4132,,33.4190,33.4112,,33.4132,33.4161,4.8171,,5.0415,5.0446,4.8473,,5.1463,5.1190,5.0818,209.890,219.9731,220.0358,211.208,233.8534,223.2796,221.6577,0.1037,,0.6015,0.7105, ,, , ,24.9769,,24.9734,,0.7707,82.4751,,,,9.2369E+00,,1.0000E-12,,13.9235,13.9326,0.1289,298.090,82.014,82.543,,,,,,,,,,,,
CalCOFI,2101RL,010,,2101_010d,17-Jan-2021 14:42:26,17-Jan-2021 06:42:26,32.01286,-119.23458,093.3 055.0,093.3,055.0,40.000,40.285,,13.5202,,13.5210,,13.5206,33.3705,,33.3763,33.3666,,33.3686,33.3725,4.7136,,4.9332,4.9369,4.7342,,5.0262,4.9995,4.9682,205.369,215.2405,215.3271,206.269,228.8260,218.0588,216.6930,0.0908,,0.4958,0.5846, ,, , ,25.0275,,25.0244,,0.7538,82.8233,,,,9.2369E+00,,1.0000E-12,,13.5146,13.5154,0.1319,293.265,79.563,79.911,,,,,,,,,,,,
CalCOFI,2101RL,010,,2101_010d,17-Jan-2021 14:42:27,17-Jan-2021 06:42:27,32.01286,-119.23458,093.3 055.0,093.3,055.0,41.000,41.292,,13.4113,,13.4130,,13.4122,33.3921,,33.3979,33.3850,,33.3870,33.3925,4.6615,,4.8786,4.8827,4.6740,,4.9623,4.9359,4.9093,203.090,212.8548,212.9535,203.639,226.2917,215.2788,214.1162,0.0898,,0.4876,0.5749, ,, , ,25.0663,,25.0605,,0.7494,82.9145,,,,7.9077E+00,,1.0000E-12,,13.4056,13.4073,0.1348,289.593,78.519,78.730,,,,,,,,,,,,
CalCOFI,2101RL,010,,2101_010d,17-Jan-2021 14:42:29,17-Jan-2021 06:42:29,32.01286,-119.23458,093.3 055.0,093.3,055.0,42.000,42.299,,13.3565,,13.3594,,13.3580,33.4175,,33.4233,33.4107,,33.4127,33.4180,4.5017,,4.7114,4.7163,4.5437,,4.8239,4.7983,4.7573,196.124,205.5628,205.6983,197.956,218.5454,209.2715,207.4849,0.0962,,0.5401,0.6373, ,, , ,25.0970,,25.0912,,0.7503,82.8958,,,,9.0217E+00,,1.0000E-12,,13.3507,13.3536,0.1377,286.697,75.756,76.464,,,,,,,,,,,,
CalCOFI,2101RL,010,,2101_010d,17-Jan-2021 14:42:32,17-Jan-2021 06:42:32,32.01284,-119.23458,093.3 055.0,093.3,055.0,43.000,43.306,,13.0381,,13.0464,,13.0423,33.4206,,33.4264,33.4185,,33.4205,33.4235,4.4343,,4.6408,4.6462,4.4402,,4.7139,4.6889,4.6676,193.173,202.4737,202.6248,193.433,215.2638,204.4905,203.5577,0.0839,,0.4393,0.5173, ,, , ,25.1630,,25.1597,,0.7417,83.0744,,,,9.2446E+00,,1.0000E-12,,13.0323,13.0405,0.1406,280.427,74.133,74.245,,,,,,,,,,,,
CalCOFI,2101RL,010,,2101_010d,17-Jan-2021 14:42:33,17-Jan-2021 06:42:33,32.01284,-119.23458,093.3 055.0,093.3,055.0,44.000,44.314,,12.7984,,12.7980,,12.7982,33.4064,,33.4122,33.4002,,33.4022,33.4072,4.4463,,4.6534,4.6587,4.4392,,4.7129,4.6879,4.6733,193.689,203.0138,203.1622,193.382,215.8376,204.4366,203.7994,0.0764,,0.3778,0.4441, ,, , ,25.1993,,25.1946,,0.7313,83.2912,,,,8.7194E+00,,1.0000E-12,,12.7925,12.7921,0.1434,276.974,73.961,73.840,,,,,,,,,,,,
CalCOFI,2101RL,010,,2101_010d,17-Jan-2021 14:42:35,17-Jan-2021 06:42:35,32.01281,-119.23460,093.3 055.0,093.3,055.0,45.000,45.321,,12.7442,,12.7430,,12.7436,33.4063,,33.4121,33.4000,,33.4020,33.4071,4.4725,,4.6808,4.6859,4.4370,,4.7105,4.6855,4.6857,194.832,204.2103,204.3527,193.284,217.1086,204.3330,204.3429,0.0774,,0.3860,0.4538, ,, , ,25.2099,,25.2052,,0.7317,83.2834,,,,8.9151E+00,,1.0000E-12,,12.7382,12.7370,0.1462,275.994,74.314,73.719,,,,,,,,,,,,
CalCOFI,2101RL,010,,2101_010d,17-Jan-2021 14:42:37,17-Jan-2021 06:42:37,32.01279,-119.23460,093.3 055.0,093.3,055.0,46.000,46.328,,12.7186,,12.6886,,12.7036,33.4148,,33.4206,33.4109,,33.4129,33.4168,4.2644,,4.4630,4.4693,4.2925,,4.5571,4.5329,4.5011,185.765,194.7190,194.9093,186.986,207.0260,197.6756,196.2925,0.0745,,0.3623,0.4255, ,, , ,25.2215,,25.2244,,0.7346,83.2232,,,,9.2392E+00,,1.0000E-12,,12.7124,12.6824,0.1489,274.917,70.821,71.242,,,,,,,,,,,,
CalCOFI,2101RL,010,,2101_010d,17-Jan-2021 14:42:40,17-Jan-2021 06:42:40,32.01278,-119.23460,093.3 055.0,093.3,055.0,47.000,47.335,,12.5561,,12.5537,,12.5549,33.4688,,33.4746,33.4637,,33.4657,33.4702,4.0297,,4.2174,4.2250,4.0541,,4.3039,4.2810,4.2530,175.525,183.9998,184.2442,176.589,195.6390,186.6855,185.4649,0.0695,,0.3213,0.3767, ,, , ,25.2949,,25.2914,,0.7264,83.3945,,,,9.2369E+00,,1.0000E-12,,12.5499,12.5475,0.1517,267.943,66.721,67.120,,,,,,,,,,,,
CalCOFI,2101RL,010,,2101_010d,17-Jan-2021 14:42:41,17-Jan-2021 06:42:41,32.01279,-119.23460,093.3 055.0,093.3,055.0,48.000,48.343,,12.2746,,12.2711,,12.2729,33.4932,,33.4990,33.4879,,33.4899,33.4945,4.0622,,4.2514,4.2589,4.0477,,4.2971,4.2743,4.2666,176.929,185.4695,185.7065,176.300,197.2002,186.3800,186.0433,0.0661,,0.2934,0.3436, ,, , ,25.3680,,25.3646,,0.7200,83.5262,,,,9.2369E+00,,1.0000E-12,,12.2684,12.2648,0.1543,261.001,66.876,66.631,,,,,,,,,,,,
CalCOFI,2101RL,010,,2101_010d,17-Jan-2021 14:42:42,17-Jan-2021 06:42:42,32.01280,-119.23460,093.3 055.0,093.3,055.0,49.000,49.350,,12.1875,,12.1867,,12.1871,33.5035,,33.5093,33.4970,,33.4990,33.5042,4.0816,,4.2717,4.2791,4.0493,,4.2988,4.2760,4.2776,177.768,186.3477,186.5803,176.363,198.1332,186.4466,186.5135,0.0593,,0.2377,0.2772, ,, , ,25.3926,,25.3877,,0.7157,83.6171,,,,9.2369E+00,,1.0000E-12,,12.1811,12.1803,0.1569,258.673,67.077,66.542,,,,,,,,,,,,
CalCOFI,2101RL,010,,2101_010d,17-Jan-2021 14:42:45,17-Jan-2021 06:42:45,32.01279,-119.23460,093.3 055.0,093.3,055.0,50.000,50.357,,12.1955,,12.1899,,12.1927,33.5049,,33.5107,33.4987,,33.5007,33.5057,4.0826,,4.2727,4.2801,4.0564,,4.3063,4.2835,4.2818,177.812,186.3938,186.6261,176.674,198.1821,186.7753,186.7007,0.0614,,0.2549,0.2977, ,, , ,25.3922,,25.3884,,0.7177,83.5744,,,,9.2369E+00,,1.0000E-12,,12.1890,12.1835,0.1597,258.742,67.105,66.665,50,,33.5264,4.170,181.89,0.161,0.234,,,,,
CalCOFI,2101RL,010,,2101_010d,17-Jan-2021 14:42:49,17-Jan-2021 06:42:49,32.01278,-119.23460,093.3 055.0,093.3,055.0,51.000,51.364,,12.2262,,12.1817,,12.2040,33.5031,,33.5089,33.5018,,33.5038,33.5064,3.9620,,4.1465,4.1546,3.9716,,4.2162,4.1939,4.1743,172.563,180.8991,181.1592,172.980,192.3452,182.8706,182.0149,0.0558,,0.2090,0.2430, ,, , ,25.3850,,25.3925,,0.7164,83.6026,,,,9.2369E+00,,1.0000E-12,,12.2195,12.1751,0.1625,259.453,65.165,65.262,,,,,,,,,,,,